THOR BURNER 2 R/B

Satellite information

Favourite Embed

Satellite Type and Status

ROCKET BODYIN ORBIT

Key statistics

Satellite THOR BURNER 2 R/B at a glance.

Uptime

21334

Days in orbit

Revolutions

≈ 14.3

Per day

Orbit

SSO

Sun Synchronous Orbit

Inclination

98.9

Latest

Satellite identification and parameters

Extended collection of information and parameters for THOR BURNER 2 R/B.

Object identification

Identified? True

Debris? False

Object name: THOR BURNER 2 R/B

International designator: 1967-010B

Object number (NORAD): 2741

Object ID (CCSDS): 2741

Country: UNITED STATES OF AMERICA (US)

Current information (Y/N): Y

RCS size: LARGE

Orbital parameters

Period: 100.767 minutes

Inclination: 98.9311 deg

SMA: 7173.085 km

Apoapsis: 832.295 km

Periapsis: 757.605 km

RAAN: 127.4268 deg

Eccentricy: 0.0052063

Argument of periapsis: 206.8539 deg

Mean anomaly: 152.9945 deg

Mean motion: 14.29038049 rev/day

Mean motion (dot): 0.00000087 rev/day2

B* drag term: 0.000052099 1/REarth

Two-line elements (TLE)

Creation date: July 6, 2025, 10:46 p.m.

Reference frame: TEME

Reference center: EARTH

Epoch: July 6, 2025, 8:08 p.m. UTC

TLE line 0: 0 THOR BURNER 2 R/B

TLE line 1: 1 2741U 67010B 25187.83933509 .00000087 00000-0 52099-4 0 9995

TLE line 2: 2 2741 98.9311 127.4268 0052063 206.8539 152.9945 14.29038049 36381

Live tracking on map

Real-time ground track for satellite THOR BURNER 2 R/B.

In-orbit conjunctions

A list of the most updated potential collisions computed for object THOR BURNER 2 R/B.

Target Orbit TCA Probability of collision Miss distance Type
CZ-6A DEB LEO 2025-02-17 05:35:06 0.0008401943 747.0 (m) DEBRIS
DELTA 1 DEB * SSO 2025-01-23 22:27:56 0.000126728 489.0 (m) DEBRIS
NOAA 16 DEB SSO 2024-12-15 12:00:01 0.0008779573 104.0 (m) DEBRIS
CZ-6A DEB LEO 2024-10-31 17:36:28 0.0003435901 968.0 (m) DEBRIS
FENGYUN 1C DEB SSO 2024-10-22 15:50:20 0.0001364885 331.0 (m) DEBRIS

Associated space launch

DSAP-4A (Defense Satellite Application Program Block 4A) was the fourth version of the military meteorological satellites of the Defense Meteorological Satellite Program.

THOR BURNER 2 R/B was lifted into orbit during the mission ‘Thor Burner 2 | DSAP-4A F2’, on board a Thor Burner 2 space rocket.

The launch took place on Feb. 8, 1967, 8 a.m. from Space Launch Complex 10W.

For more information about the launch, click the button.

Launch to space Thor Burner 2 | DSAP-4A F2
Thor Burner 2 | DSAP-4A F2

Agency: N/A

Status: Launch Successful

Launch date: Feb. 8, 1967, 8 a.m. UTC

Rocket: Thor Burner 2

Launch pad: Space Launch Complex 10W

Location: Vandenberg SFB, CA, USA

...

Latest news about this satellite

There are no fresh news available about this satellite. Check back as we update our databases every day.


Newsletter sign-up

Weekly statistics, charts and insights to help you stay on top of the space industry.